TimeEST,TemperatureF,Dew PointF,Humidity,Sea Level PressureIn,VisibilityMPH,Wind Direction,Wind SpeedMPH,Gust SpeedMPH,PrecipitationIn,Events,Conditions,WindDirDegrees,DateUTC
12:51 AM,37.0,36.0,96,29.81,3.0,North,11.5,-,0.00,,Light Drizzle,360,2013-02-24 05:51:00
1:51 AM,37.9,36.0,93,29.81,3.0,North,8.1,-,0.00,,Light Drizzle,10,2013-02-24 06:51:00
2:51 AM,37.9,37.0,97,29.80,3.0,North,9.2,-,0.00,,Light Drizzle,350,2013-02-24 07:51:00
3:41 AM,37.4,37.4,100,29.79,10.0,NNW,9.2,-,0.00,,Overcast,330,2013-02-24 08:41:00
3:51 AM,37.9,36.0,93,29.80,10.0,NNW,10.4,-,0.00,,Overcast,330,2013-02-24 08:51:00
4:03 AM,37.4,35.6,93,29.80,10.0,NNW,10.4,-,N/A,,Overcast,330,2013-02-24 09:03:00
4:10 AM,37.4,35.6,93,29.80,10.0,NNW,8.1,-,N/A,,Overcast,340,2013-02-24 09:10:00
4:51 AM,37.0,35.1,93,29.76,10.0,North,10.4,-,N/A,,Overcast,10,2013-02-24 09:51:00
4:58 AM,37.4,35.6,93,29.77,10.0,North,9.2,-,N/A,,Mostly Cloudy,10,2013-02-24 09:58:00
5:51 AM,37.9,36.0,93,29.76,10.0,North,10.4,-,N/A,,Mostly Cloudy,360,2013-02-24 10:51:00
6:03 AM,37.4,35.6,93,29.76,10.0,NNW,9.2,-,N/A,,Mostly Cloudy,340,2013-02-24 11:03:00
6:19 AM,37.4,35.6,93,29.77,10.0,NNW,9.2,-,N/A,,Overcast,330,2013-02-24 11:19:00
6:38 AM,37.4,35.6,93,29.78,10.0,NW,5.8,-,N/A,,Overcast,310,2013-02-24 11:38:00
6:51 AM,37.9,35.1,89,29.78,10.0,NW,8.1,-,N/A,,Overcast,310,2013-02-24 11:51:00
7:46 AM,39.2,35.6,87,29.77,10.0,North,5.8,-,N/A,,Mostly Cloudy,360,2013-02-24 12:46:00
7:51 AM,39.0,36.0,89,29.77,10.0,North,5.8,-,N/A,,Mostly Cloudy,360,2013-02-24 12:51:00
8:51 AM,42.1,37.0,82,29.78,10.0,NNW,9.2,-,N/A,,Mostly Cloudy,330,2013-02-24 13:51:00
9:07 AM,42.8,37.4,81,29.78,10.0,NW,13.8,-,N/A,,Mostly Cloudy,310,2013-02-24 14:07:00
9:51 AM,43.0,37.0,80,29.78,10.0,NNW,10.4,-,N/A,,Mostly Cloudy,330,2013-02-24 14:51:00
10:25 AM,42.8,37.4,81,29.78,10.0,NNW,11.5,-,N/A,,Mostly Cloudy,340,2013-02-24 15:25:00
10:51 AM,45.0,37.0,74,29.78,10.0,NNW,11.5,-,N/A,,Mostly Cloudy,330,2013-02-24 15:51:00
11:17 AM,46.4,35.6,66,29.78,10.0,NW,18.4,25.3,N/A,,Mostly Cloudy,310,2013-02-24 16:17:00
11:51 AM,46.9,34.0,61,29.78,10.0,NW,15.0,21.9,N/A,,Mostly Cloudy,310,2013-02-24 16:51:00
12:51 PM,48.9,30.9,50,29.76,10.0,West,18.4,23.0,N/A,,Mostly Cloudy,280,2013-02-24 17:51:00
1:51 PM,48.0,28.9,48,29.75,10.0,WNW,18.4,27.6,N/A,,Mostly Cloudy,290,2013-02-24 18:51:00
2:51 PM,46.0,27.0,47,29.76,10.0,NW,16.1,28.8,N/A,,Mostly Cloudy,310,2013-02-24 19:51:00
3:51 PM,44.1,27.0,51,29.79,10.0,NW,18.4,25.3,N/A,,Overcast,310,2013-02-24 20:51:00
4:51 PM,39.9,28.0,63,29.83,10.0,WNW,21.9,28.8,N/A,,Overcast,290,2013-02-24 21:51:00
5:51 PM,39.0,24.1,55,29.87,10.0,WNW,11.5,21.9,N/A,,Mostly Cloudy,300,2013-02-24 22:51:00
6:51 PM,37.0,21.0,52,29.90,10.0,WNW,15.0,24.2,N/A,,Partly Cloudy,300,2013-02-24 23:51:00
7:51 PM,36.0,21.0,55,29.93,10.0,NW,18.4,27.6,N/A,,Scattered Clouds,310,2013-02-25 00:51:00
8:51 PM,35.1,21.9,59,29.96,10.0,NW,18.4,24.2,N/A,,Partly Cloudy,310,2013-02-25 01:51:00
9:51 PM,34.0,21.0,59,29.96,10.0,WNW,15.0,21.9,N/A,,Partly Cloudy,300,2013-02-25 02:51:00
10:51 PM,34.0,21.0,59,29.97,10.0,NW,13.8,20.7,N/A,,Partly Cloudy,310,2013-02-25 03:51:00
11:51 PM,34.0,21.0,59,29.98,10.0,NW,11.5,20.7,N/A,,Clear,310,2013-02-25 04:51:00